RH
78 76 83 97 100 100 100 58 48 44 47 52 55 56 51 46 43 39 36 36 49 92 100 100 97 95 100 94 71 85 82 65 97 100 99 77 59 49 56 85 100 97 100 99 100 92 85 96 100 100 100 91 53 30
91 100 100 93 100 100 100 68 52 54 38 40 41 39 37 33 29 26 27 24 64 100 100 94 97 94 96 93 63 80 51 49 79 100 100 83 99 100 99 100 99 98 94 100 100 95 98 100 100 99 69 33 14 15
94 97 90 92 98 74 74 97 95 97 54 30 28 26 23 21 32 54 59 47 97 100 100 97 81 83 94 75 79 81 49 75 98 100 100 93 95 93 96 95 100 99 100 100 100 95 98 100 77 13 9 13 16 15
75 56 49 44 42 41 39 71 100 98 86 38 25 28 47 70 65 75 100 100 100 100 98 73 69 81 54 79 100 93 75 78 100 99 93 94 100 100 92 92 99 100 100 100 98 100 99 74 13 15 25 18 17 32
50 51 59 64 54 40 37 87 96 76 42 42 92 100 100 58 100 100 100 100 100 86 80 94 93 96 92 98 100 85 68 87 94 88 86 84 80 94 91 96 99 100 100 99 99 76 39 17 22 24 20 20 26 48
100 100 100 100 100 85 88 57 76 35 99 100 100 100 100 100 100 100 100 94 66 81 100 100 100 100 98 90 100 80 98 100 100 93 81 89 100 100 100 100 100 100 97 93 50 14 12 25 28 22 22 24 30 51
100 100 100 100 93 77 53 50 58 100 100 100 99 99 100 100 100 60 61 65 60 100 94 98 100 99 99 98 99 100 99 92 90 87 91 100 100 97 99 100 100 89 76 48 20 12 14 18 23 26 26 26 27 46
100 100 100 100 100 96 86 92 100 92 84 93 100 100 100 98 94 98 88 98 84 75 78 90 92 95 97 100 100 95 97 90 94 100 100 100 100 100 100 99 84 72 62 27 14 11 11 17 22 31 34 32 39 71
100 100 100 100 100 100 100 99 100 100 100 100 100 100 63 90 100 100 99 76 57 61 59 68 74 77 77 84 98 90 93 100 99 100 98 96 95 72 49 24 20 20 16 14 12 11 10 9 10 22 38 39 52 85
100 100 100 100 100 100 100 100 100 99 96 87 64 74 100 100 100 100 100 94 80 90 86 92 95 94 97 89 92 100 100 100 100 100 84 70 53 25 21 20 18 18 17 16 14 13 12 11 10 11 22 42 50 86
100 100 100 100 100 100 99 100 100 91 69 53 78 100 100 100 100 100 100 100 100 100 100 100 100 100 99 100 100 100 93 77 78 67 55 54 60 57 49 31 21 19 19 18 18 17 16 15 14 11 10 22 52 72
96 80 56 40 48 74 80 76 65 62 47 70 100 100 100 100 100 100 99 99 100 98 94 94 93 85 91 100 100 100 98 92 94 82 72 56 47 27 20 17 16 16 15 15 15 15 16 16 16 14 14 14 34 61
42 34 34 34 35 40 47 52 74 84 80 100 100 100 100 97 93 92 91 98 96 97 100 100 100 100 96 98 97 85 88 54 40 26 21 16 15 14 16 23 21 18 17 17 15 14 16 21 26 19 18 22 35 70
37 29 29 35 60 91 100 100 100 97 100 100 100 97 96 86 87 100 100 100 100 100 100 100 99 100 100 100 90 52 27 24 19 14 13 13 24 32 31 32 24 23 23 22 21 21 26 40 66 44 28 39 71 100
37 38 41 80 96 100 100 100 100 100 100 98 100 100 96 98 100 100 100 92 94 100 100 100 98 89 88 69 35 24 21 16 13 13 18 39 33 34 48 49 37 30 35 41 50 63 79 85 78 65 96 100 100 100
38 64 89 83 96 100 100 100 99 100 100 100 98 100 100 100 100 100 99 100 100 99 98 97 98 99 84 31 24 18 14 14 14 17 36 29 34 53 49 61 70 58 42 52 70 79 87 95 92 100 100 100 100 100
85 100 100 94 97 100 100 100 99 98 98 100 100 100 100 100 100 100 100 100 99 100 100 100 100 54 26 22 15 15 15 14 17 42 39 32 30 59 66 82 98 98 97 55 64 100 100 100 100 100 100 100 100 100
100 100 100 100 100 100 100 100 100 100 100 100 100 100 97 100 99 100 100 100 100 100 100 90 34 25 18 15 16 15 14 18 43 56 43 41 32 67 75 87 99 100 100 57 82 100 100 100 100 100 100 100 100 100
100 100 100 100 100 100 100 100 100 100 100 100 100 100 100 100 100 100 100 98 92 93 69 31 22 16 16 18 14 17 23 30 59 68 53 40 34 71 81 90 95 100 94 65 82 96 100 100 100 100 100 100 100 100
96 99 100 100 100 100 100 100 100 100 93 92 94 95 95 98 100 100 98 97 96 49 30 20 16 17 19 14 13 28 34 45 67 54 42 40 54 77 94 90 95 98 100 100 100 99 98 97 99 100 100 100 100 100
98 96 99 99 98 98 100 100 100 100 94 94 93 98 100 100 97 100 100 98 48 31 20 15 17 21 19 14 15 28 41 44 52 50 49 47 59 73 87 100 100 100 100 100 100 100 100 100 100 100 100 98 100 100
100 98 97 96 100 99 97 94 97 99 98 96 96 96 98 97 92 86 57 42 33 25 16 15 18 23 22 16 16 29 44 42 46 58 60 60 61 77 84 91 97 99 98 99 100 100 100 100 100 100 98 99 100 100
100 100 100 100 99 94 96 90 95 96 95 97 100 99 96 77 57 50 39 36 30 21 16 16 16 21 23 20 18 23 40 44 45 50 65 67 62 80 90 91 84 82 94 94 93 97 100 100 100 100 100 100 100 100
91 99 99 100 100 100 95 97 96 99 100 100 100 100 93 73 53 45 41 39 34 26 20 18 16 16 19 22 22 20 26 38 50 55 72 77 74 73 81 90 89 73 67 72 76 75 80 76 94 100 100 100 100 100
45 83 98 85 82 94 100 100 100 98 98 97 97 91 72 61 49 45 43 38 34 29 23 20 18 18 19 20 21 22 22 22 30 46 64 80 79 80 77 80 86 95 100 100 98 87 69 59 57 58 61 75 90 97
37 44 70 95 84 74 66 66 68 71 68 62 58 57 54 50 49 44 38 32 29 25 24 22 22 22 23 25 27 26 25 26 24 24 29 48 62 71 84 81 76 85 94 93 92 91 91 94 79 56 56 60 62 65
28 33 42 86 100 82 70 63 61 58 54 51 47 46 44 41 39 38 37 36 36 36 36 38 40 42 41 40 36 34 32 28 24 21 21 24 34 55 88 99 92 76 69 74 81 94 97 92 90 94 79 60 61 67
24 28 33 53 91 88 78 68 62 60 58 56 52 48 43 41 41 38 38 40 38 39 42 44 44 42 40 39 35 30 26 23 22 24 28 28 28 33 50 90 100 93 80 71 73 87 91 85 81 88 97 97 86 77
51 52 52 55 64 73 69 60 52 49 47 44 40 37 38 38 37 37 39 43 47 50 51 50 47 43 39 32 31 30 32 33 37 41 45 50 51 56 59 62 84 100 100 80 73 68 54 50 58 80 93 98 99 98
75 75 78 77 77 76 71 64 57 50 46 41 39 40 41 41 43 45 50 55 56 53 49 49 46 41 39 46 54 55 56 58 61 68 76 81 89 86 88 93 95 100 100 100 100 87 74 67 69 75 86 95 100 100
46 44 46 45 47 52 53 53 49 46 44 42 40 38 36 35 39 47 52 52 51 46 42 44 47 50 58 70 68 63 66 72 78 89 93 91 97 100 100 100 100 100 100 100 100 100 100 100 99 97 96 99 100 98
49 50 50 52 49 40 34 31 32 33 33 33 37 40 46 50 54 49 43 40 40 40 42 52 59 64 73 73 70 71 74 76 78 84 87 90 91 92 93 100 100 100 100 100 100 100 100 100 100 99 96 93 88 89
38 32 30 30 28 27 28 36 40 39 41 50 57 58 55 48 40 42 40 40 42 44 58 74 82 84 78 74 75 77 73 72 74 77 78 83 89 90 92 93 93 92 93 96 97 98 100 100 100 100 98 97 100 100
Wind_Speed
24 23 25 23 14 7 12 19 25 28 30 32 34 35 36 36 36 36 35 35 34 34 35 39 38 32 30 22 22 22 28 42 41 33 37 29 35 35 33 31 33 31 30 29 30 29 22 19 26 29 25 25 24 24
27 27 24 22 13 11 16 16 19 21 25 28 30 31 32 32 33 32 30 32 39 32 33 37 34 31 30 20 21 22 28 29 37 33 34 23 25 22 25 29 32 34 30 27 27 21 21 22 24 21 19 21 23 21
23 24 18 17 15 19 22 20 15 19 22 25 27 29 27 29 29 28 28 35 36 35 31 24 24 31 31 25 19 22 26 25 21 19 22 31 29 26 28 27 27 27 24 24 24 23 24 24 21 19 19 18 17 16
15 13 12 14 17 18 19 26 28 23 20 26 30 28 30 30 38 42 34 29 22 24 19 13 16 23 24 24 22 21 26 27 23 24 23 21 23 24 25 21 19 19 20 23 23 20 17 19 20 17 15 14 13 12
9 9 10 11 15 20 22 26 24 23 29 37 42 39 35 40 36 29 25 24 25 23 23 19 18 19 25 23 21 23 27 24 22 21 22 23 26 26 23 17 16 18 20 21 20 20 19 19 18 17 15 12 12 13
20 17 17 17 14 8 24 26 26 42 52 46 43 40 39 34 31 29 30 27 25 32 26 16 11 23 21 25 24 26 25 22 21 20 22 22 19 19 20 22 23 19 19 17 17 17 17 18 17 16 15 13 14 14
20 17 19 18 11 22 29 41 53 59 46 46 41 37 33 33 24 23 26 28 32 25 17 16 15 12 15 20 16 17 17 17 19 20 18 18 22 25 21 19 23 18 15 16 16 16 16 18 18 16 14 13 13 15
23 23 23 23 36 45 51 55 51 43 39 36 33 33 31 25 29 25 32 30 32 25 19 16 16 14 17 19 18 15 15 14 14 16 17 23 23 19 17 16 16 16 14 14 14 15 15 16 17 17 15 13 14 14
26 28 27 31 40 38 41 41 37 37 36 34 31 25 26 29 25 24 28 30 27 24 21 16 15 15 18 21 21 20 17 17 16 15 17 18 18 15 14 13 15 15 15 16 15 16 16 16 18 18 17 15 15 15
25 31 28 30 34 35 34 32 30 28 26 25 27 32 29 30 26 28 26 24 22 18 18 16 17 15 15 16 16 17 17 17 15 15 14 13 14 14 13 13 14 15 16 18 19 19 19 20 21 20 22 21 18 18
24 26 28 26 26 30 26 23 26 25 23 23 33 29 32 27 23 22 21 19 17 15 15 18 21 17 17 18 16 15 14 13 13 13 13 14 15 14 15 17 18 20 22 24 25 26 26 26 25 25 24 25 25 22
23 23 21 22 23 25 25 24 23 23 24 31 30 32 29 25 23 21 19 18 13 13 14 17 20 21 19 16 14 14 15 15 14 13 13 14 15 16 18 20 24 27 30 32 34 35 35 34 32 30 28 26 28 26
21 19 18 18 17 21 24 28 30 27 29 29 30 30 28 26 22 18 15 12 12 13 14 16 18 18 17 16 15 12 12 11 10 12 12 13 16 18 17 18 21 22 24 26 29 34 37 37 36 36 33 31 30 29
16 14 12 13 16 21 24 28 27 29 31 30 29 28 26 21 16 13 11 13 14 14 17 19 17 15 13 14 12 10 9 10 9 10 12 13 11 10 12 15 17 17 19 23 27 27 29 32 31 34 33 33 30 28
11 12 12 16 19 23 24 25 25 25 29 29 26 22 20 15 13 9 11 14 15 18 19 16 17 16 13 11 10 9 9 8 9 11 8 6 7 10 11 12 13 13 16 19 12 8 13 20 22 26 26 29 27 26
9 13 16 15 19 22 23 24 23 22 23 24 23 21 18 16 10 10 13 14 15 14 12 13 14 12 12 10 9 8 8 10 10 8 7 4 6 7 6 7 10 11 10 9 5 3 5 10 17 19 23 25 24 24
13 16 17 18 20 22 23 25 25 24 23 21 19 18 16 14 14 15 14 15 14 12 11 12 12 11 9 8 7 7 10 10 9 10 6 3 6 7 7 8 8 8 8 2 10 2 7 10 9 16 18 19 18 19
15 16 19 22 22 23 24 26 25 24 21 18 16 15 16 16 17 15 16 16 15 14 13 13 12 10 8 6 8 9 8 8 10 11 7 6 8 7 8 8 6 4 2 7 6 1 3 5 7 11 16 19 19 21
19 20 22 23 23 22 23 25 24 22 18 16 17 17 17 15 15 17 16 16 16 15 14 12 11 9 7 7 7 6 8 9 9 9 9 9 7 6 6 5 3 2 3 8 8 5 3 7 10 12 13 15 16 18
22 22 22 22 21 22 22 22 21 22 21 19 18 16 15 15 14 15 15 15 16 15 13 12 10 6 6 6 7 7 10 9 8 6 6 6 5 5 5 3 2 4 5 6 8 10 10 10 10 10 11 14 16 17
18 19 19 20 21 21 20 20 20 20 19 16 15 16 15 14 14 14 16 16 15 14 13 11 8 5 5 6 8 8 11 10 8 7 6 6 5 5 5 5 5 6 6 7 8 9 11 13 14 15 16 17 18 18
12 13 16 18 19 20 18 18 18 18 17 16 16 15 14 13 13 15 15 15 14 14 13 11 8 5 4 5 7 8 11 11 9 7 6 5 5 6 7 7 6 6 7 8 9 9 8 9 13 17 19 19 19 20
8 11 12 13 14 17 18 17 16 16 17 17 17 16 15 15 15 15 15 14 13 13 13 12 10 8 6 5 7 9 10 12 12 10 9 8 7 7 7 7 7 6 7 9 10 10 10 10 10 10 15 18 20 21
5 7 10 13 14 15 15 17 17 18 18 18 16 16 15 15 15 14 14 14 13 13 13 13 12 11 10 8 8 8 11 14 14 14 13 12 11 9 8 7 7 5 4 6 8 9 10 11 13 13 13 13 14 16
1 2 9 11 12 13 15 17 18 18 17 17 17 17 16 15 15 15 14 13 13 13 13 13 14 14 13 12 12 11 12 14 16 18 18 16 15 14 13 12 12 11 10 9 9 9 10 11 12 14 16 18 19 20
6 6 6 12 13 14 14 15 16 16 17 16 16 16 15 15 15 14 13 13 13 13 13 13 14 14 15 15 15 15 15 16 18 19 21 22 22 21 19 18 17 16 15 15 14 14 14 14 15 15 16 17 19 20
11 12 10 12 15 15 15 16 16 16 16 16 16 15 15 14 13 13 14 14 14 14 15 15 16 16 17 17 18 18 19 20 20 21 22 24 26 27 25 23 22 20 18 17 17 18 16 16 17 18 18 18 18 18
16 14 16 16 16 16 16 16 15 15 15 15 15 15 14 14 14 15 15 16 16 17 17 17 17 17 18 18 19 19 19 20 21 22 22 22 23 25 28 28 26 23 22 20 19 18 18 19 20 18 18 19 19 19
15 16 16 18 19 20 19 18 18 17 17 17 17 17 16 16 17 17 18 18 19 19 19 19 18 18 18 17 17 17 17 18 18 20 21 22 21 21 21 24 26 25 23 22 21 20 19 19 20 21 20 20 20 20
15 15 16 17 18 18 19 20 20 20 20 20 20 20 19 19 19 20 20 20 20 21 21 20 19 18 17 15 15 15 15 14 13 14 14 14 13 16 17 17 19 20 22 23 23 22 22 21 21 21 22 23 23 24
15 15 16 16 17 18 19 20 20 20 20 21 22 21 21 21 22 22 23 23 22 23 22 22 20 19 17 16 15 13 12 11 12 13 14 14 13 12 13 16 18 19 20 21 21 22 22 23 23 23 24 25 26 28
19 19 19 19 20 20 22 23 23 23 23 24 24 24 24 24 24 24 23 22 22 22 23 22 20 18 17 16 14 13 12 11 11 12 13 15 16 17 18 18 19 20 22 23 25 25 25 25 25 25 26 27 29 29
16 17 18 19 20 20 21 21 21 22 22 22 22 22 23 23 22 21 22 22 22 23 23 22 20 19 19 18 17 16 15 14 14 14 15 15 15 16 18 21 23 24 25 25 26 26 26 26 26 26 27 27 28 29
Wind_Direction
207 208 183 171 152 158 229 220 213 210 207 205 204 204 204 205 207 209 210 207 202 197 211 213 218 223 224 227 224 237 226 219 220 229 225 229 240 240 242 239 247 254 253 248 248 250 247 242 244 250 251 250 254 258
166 154 151 148 118 190 203 193 187 188 189 191 194 196 198 201 200 202 199 194 190 199 216 220 226 225 202 213 226 216 217 215 226 229 218 226 230 227 242 249 248 249 249 250 244 244 234 248 253 246 243 248 257 260
158 167 184 191 190 183 172 163 162 179 182 180 181 182 185 190 187 187 186 175 183 199 209 205 208 208 212 223 221 217 208 200 221 229 229 223 239 245 258 254 243 242 237 236 237 233 239 239 232 238 242 243 251 261
169 173 176 170 172 184 179 168 171 182 175 176 169 171 162 160 157 155 164 173 186 196 194 194 214 223 211 202 206 212 204 206 201 222 225 228 237 254 245 232 225 229 232 227 233 228 219 219 232 234 233 236 249 243
148 153 158 170 189 192 192 179 177 175 155 145 137 131 134 148 156 152 157 180 183 176 170 162 185 181 196 196 197 192 198 209 229 231 239 251 257 248 233 226 226 242 229 219 211 217 218 226 223 224 228 241 233 239
122 133 139 111 109 150 192 167 166 146 138 134 137 142 146 156 166 174 178 176 171 177 190 200 175 178 176 183 180 192 201 217 231 239 249 246 222 218 226 229 237 236 222 213 223 229 228 222 221 220 225 231 235 233
130 122 109 115 125 131 143 146 140 134 139 142 141 150 157 158 171 174 173 173 176 188 189 189 183 169 172 170 179 192 206 230 236 237 230 217 204 204 215 226 220 217 214 225 222 223 222 219 219 219 222 230 240 236
106 118 116 115 117 119 124 132 136 137 139 143 150 162 170 170 160 164 169 171 177 183 188 188 198 203 204 205 213 227 245 242 235 208 198 189 195 202 206 216 210 217 224 222 218 220 223 225 224 221 223 228 232 230
114 127 122 119 127 128 134 139 140 144 153 159 169 173 160 157 163 148 163 173 182 193 201 211 217 223 220 216 223 237 235 221 203 191 187 191 187 198 216 214 219 225 229 230 229 231 231 230 233 229 225 224 225 226
125 132 136 133 139 136 137 142 145 151 157 161 157 152 155 151 160 167 175 183 195 204 208 211 200 190 192 199 208 205 200 197 197 191 186 194 203 217 220 226 234 238 239 240 242 241 240 238 235 230 227 224 224 225
132 136 138 137 143 153 155 156 157 163 166 155 153 153 153 160 155 156 162 171 170 179 185 179 173 168 175 171 174 181 177 183 188 194 201 208 221 227 239 247 251 253 254 253 252 249 247 244 243 241 233 225 222 224
133 135 135 139 142 152 159 161 163 164 151 151 151 158 160 161 161 169 171 173 172 170 164 169 174 172 170 176 177 183 190 197 198 204 215 229 239 248 255 260 262 262 262 261 259 256 252 246 241 236 233 230 223 223
126 129 135 142 145 155 156 157 156 157 153 159 155 160 164 168 170 168 163 166 167 163 164 176 172 167 174 177 178 184 188 201 210 222 235 249 260 265 268 272 275 273 272 270 267 261 255 248 239 232 228 223 222 223
127 118 120 141 143 146 152 155 160 164 164 165 164 166 170 173 162 159 166 167 161 161 169 175 172 172 174 183 186 195 206 216 231 252 266 266 266 276 283 289 280 271 285 289 284 266 245 235 228 221 217 219 218 221
147 142 141 146 143 149 153 159 165 169 167 167 168 173 174 171 171 170 166 161 164 168 170 174 179 178 182 184 198 206 222 242 263 271 257 249 264 274 284 298 301 281 302 317 308 264 222 210 213 213 212 210 212 218
171 158 157 145 137 148 148 154 158 161 166 172 177 178 176 167 160 156 150 153 165 174 179 182 183 189 192 200 209 224 248 270 268 240 215 238 287 286 292 317 338 332 325 335 5 106 177 196 195 200 206 209 211 213
150 146 157 152 143 145 151 155 155 159 161 163 165 168 173 175 167 163 154 159 167 173 183 184 185 194 200 210 227 258 278 266 233 207 205 272 303 273 285 306 316 329 344 39 138 23 167 176 193 204 200 203 208 209
137 139 144 150 154 151 154 159 162 167 171 172 174 169 165 165 164 172 174 174 182 187 183 182 188 196 207 230 262 268 251 229 207 208 222 277 302 284 285 294 291 291 318 167 184 233 219 195 203 211 210 214 221 223
134 137 141 146 149 149 156 164 170 172 167 160 161 163 164 168 176 179 184 184 185 185 179 183 187 200 227 263 256 241 217 206 206 219 241 271 287 277 283 277 277 241 209 204 243 267 224 209 216 220 221 218 217 219
142 139 144 151 152 154 157 161 170 171 169 169 171 171 172 170 177 186 188 183 181 181 185 189 196 218 258 255 238 214 197 196 201 214 239 267 283 284 282 300 261 238 231 232 242 249 243 238 235 231 225 222 224 228
157 155 150 151 151 154 157 161 167 173 175 175 172 175 181 185 187 182 183 183 184 190 191 196 205 237 267 245 224 209 201 205 211 230 261 281 276 274 280 274 262 253 243 240 241 249 259 264 260 249 243 244 247 249
143 162 173 175 175 173 173 174 175 179 181 182 184 187 191 191 190 185 184 190 195 197 199 203 213 239 272 243 223 214 206 211 217 231 251 274 293 283 276 276 275 264 263 261 259 264 260 265 260 254 251 250 249 250
147 170 172 174 186 195 197 194 191 189 189 190 189 190 192 192 192 194 196 201 204 207 211 216 223 237 253 252 236 225 221 225 230 234 242 256 276 275 273 273 278 283 279 278 279 276 273 267 263 259 252 249 249 253
80 161 168 180 183 185 189 192 190 187 189 191 191 192 196 200 203 207 208 212 216 220 223 227 232 239 248 251 256 250 238 236 238 240 241 248 256 265 261 262 268 281 290 295 297 295 290 283 277 271 265 261 260 261
123 166 189 184 180 182 184 188 190 193 198 201 201 201 203 208 213 216 219 222 225 230 234 236 239 243 248 251 256 257 257 253 248 245 246 247 252 255 256 258 260 265 273 284 296 306 308 298 290 282 278 275 272 271
231 210 206 204 201 194 191 190 191 193 196 200 204 208 212 216 219 222 225 228 230 234 238 241 244 247 251 255 258 258 259 261 260 257 254 251 250 252 254 256 259 262 267 274 283 291 297 301 304 298 290 284 281 279
239 222 215 210 207 207 205 205 205 205 206 208 210 214 216 220 223 227 231 236 241 243 246 249 253 256 259 260 261 262 262 262 262 262 260 256 253 252 252 253 256 260 264 268 275 277 284 294 299 300 298 296 294 293
237 229 219 212 212 211 210 211 211 212 214 216 218 221 225 228 229 236 239 243 246 249 252 255 257 258 261 264 265 264 265 266 266 265 263 262 258 255 251 249 252 255 258 262 266 270 276 282 286 290 294 294 293 294
227 226 222 218 218 219 221 223 223 223 225 229 233 236 238 242 246 248 251 253 254 255 256 256 258 261 264 266 267 269 270 271 270 268 264 261 261 261 259 252 250 254 256 258 262 266 273 279 282 284 287 291 294 297
221 220 221 221 221 225 227 229 232 235 237 240 241 243 245 248 250 252 252 253 253 252 253 255 257 259 263 268 274 281 278 277 276 272 268 262 264 259 256 254 254 261 266 265 265 268 273 276 280 284 287 291 294 297
240 235 234 233 231 230 229 232 235 238 240 243 245 247 248 249 250 251 252 253 253 251 250 251 255 259 264 269 268 270 274 278 277 271 274 272 265 267 265 259 258 260 264 269 272 273 274 276 279 283 287 290 293 296
243 243 244 244 244 245 245 243 243 245 247 248 248 247 248 249 251 252 253 251 249 248 247 247 251 255 254 249 248 256 267 278 284 285 286 281 275 268 265 268 272 274 272 270 271 274 276 279 282 286 290 292 294 296
243 243 243 243 243 240 240 242 244 245 246 246 247 248 249 248 248 245 244 243 243 244 243 246 247 249 246 245 249 256 265 274 280 283 285 287 290 287 282 279 278 277 277 277 278 279 280 281 285 288 290 291 292 295